Date,TemperatureHighF,TemperatureAvgF,TemperatureLowF,DewpointHighF,DewpointAvgF,DewpointLowF,HumidityHigh,HumidityAvg,HumidityLow,PressureMaxIn,PressureMinIn,WindSpeedMaxMPH,WindSpeedAvgMPH,GustSpeedMaxMPH,PrecipitationSumIn
2013-1-6,30,30,30,25,25,25,80,80,80,29.91,29.91,3,3,8,0.00
2013-1-7,35,31,24,29,24,18,79,75,69,30.15,29.88,7,3,15,0.04
2013-1-8,38,35,32,31,27,25,85,75,61,30.06,29.88,5,2,13,0.00
2013-1-9,45,38,31,37,30,24,95,72,51,30.09,29.71,7,2,16,0.00
2013-1-10,43,39,36,30,26,22,74,61,52,30.55,30.06,6,2,9,0.00
2013-1-11,45,40,38,44,37,30,98,88,74,30.39,29.89,3,1,7,0.13
2013-1-12,54,47,40,52,45,39,98,96,86,30.01,29.89,4,1,9,0.04
2013-1-13,55,49,45,54,48,44,98,96,91,29.98,29.71,3,1,6,1.08
2013-1-14,45,34,30,44,27,19,96,74,61,30.39,29.77,7,3,15,0.21
2013-1-15,35,30,27,21,19,16,73,63,50,30.39,30.30,4,2,8,0.04
2013-1-30,52,50,47,51,49,46,98,98,98,29.33,29.00,6,2,12,0.50
2013-1-31,47,28,23,46,18,11,98,68,55,29.71,29.03,6,4,16,0.08
2013-2-1,26,21,18,14,9,5,68,58,46,30.18,29.74,6,3,13,0.04
2013-2-2,26,21,17,12,8,4,64,57,54,30.18,29.95,3,2,12,0.00
2013-2-3,29,21,15,14,8,5,67,58,46,30.01,29.83,5,2,9,0.00
2013-2-4,25,21,14,11,7,0,64,55,48,29.98,29.86,5,2,9,0.00
2013-2-5,28,21,13,16,8,0,62,56,53,29.98,29.83,5,1,9,0.00
2013-2-6,37,26,21,22,11,5,77,54,35,30.39,29.83,6,2,9,0.00
2013-2-7,33,26,21,22,16,6,84,65,52,30.39,30.12,5,2,10,0.00
2013-2-8,24,21,17,20,16,11,86,80,75,30.18,29.89,6,2,9,0.00
2013-2-9,41,19,11,21,10,4,75,68,43,30.39,30.18,6,1,7,0.00
2013-2-10,41,25,10,30,17,4,85,72,50,30.39,29.95,5,2,10,0.00
2013-2-11,49,36,34,42,32,29,98,86,57,29.95,29.56,6,2,15,0.25
2013-2-12,43,34,32,32,26,22,100,73,50,29.98,29.68,5,3,16,0.04
2013-2-13,46,33,28,26,21,18,70,63,43,29.95,29.77,3,1,9,0.00
2013-2-14,36,31,28,35,26,20,98,83,70,29.86,29.71,5,1,12,0.04
2013-2-15,36,32,23,35,22,13,97,69,50,30.12,29.71,5,3,14,0.04
2013-2-16,35,25,21,23,17,12,79,71,54,30.09,29.95,4,1,7,0.00
2013-2-17,24,15,9,14,4,0,74,61,46,30.24,29.98,5,2,13,0.00
2013-2-18,40,22,10,25,10,-2,73,59,45,30.27,29.86,5,1,9,0.04
2013-2-19,39,34,26,38,29,19,97,82,71,29.86,29.53,7,3,18,0.37
2013-2-20,28,24,21,20,12,9,79,61,52,30.09,29.71,6,3,14,0.04
2013-2-21,38,20,11,18,8,-1,64,57,43,30.42,30.06,6,3,14,0.00
2013-2-22,35,29,18,32,23,8,93,79,64,30.39,29.98,6,2,15,0.00
2013-2-23,38,35,32,35,30,24,94,83,64,29.98,29.83,5,2,12,0.04
2013-2-24,37,33,31,31,27,25,86,77,70,30.12,29.83,6,2,9,0.04
2013-2-25,37,34,33,28,27,26,79,73,66,30.24,30.06,3,1,7,0.00
2013-2-26,44,36,31,33,29,25,93,74,58,30.21,29.83,6,3,15,0.17
2013-2-27,35,34,33,34,33,31,98,97,94,29.83,29.59,6,2,13,1.46
2013-2-28,43,35,33,41,33,29,98,93,84,29.80,29.53,5,1,9,0.46
2013-3-1,44,30,23,29,22,14,87,71,47,30.03,29.77,6,3,14,0.04
2013-3-2,34,25,19,20,15,11,71,64,53,30.03,29.95,5,2,8,0.00
2013-3-3,33,25,21,18,14,10,69,61,52,29.98,29.89,5,2,13,0.00
2013-3-4,43,28,21,22,15,12,70,60,42,30.12,29.95,6,2,10,0.00
2013-3-5,46,30,22,24,18,14,73,62,40,30.12,30.01,4,2,12,0.00
2013-3-6,44,36,29,30,26,23,78,69,53,30.18,29.98,4,2,8,0.00
2013-3-7,43,36,34,36,31,28,89,80,66,30.33,30.18,3,1,6,0.04
2013-3-8,45,37,33,34,30,25,91,76,55,30.42,30.30,4,1,8,0.04
2013-3-9,54,38,31,34,29,23,87,71,42,30.42,30.18,3,1,8,0.00
2013-3-10,62,44,36,37,31,28,82,63,37,30.18,29.95,3,1,6,0.00
2013-3-11,46,42,39,43,36,28,95,81,63,29.98,29.62,3,0,9,0.12
2013-3-12,44,39,37,43,36,32,96,87,81,29.86,29.65,5,2,12,0.12
2013-3-13,34,34,34,30,30,30,84,84,84,29.89,29.89,2,2,3,0.00
2013-3-14,41,33,27,30,13,-5,84,48,15,30.09,29.89,7,3,15,0.00
2013-3-15,49,35,28,28,19,10,68,52,39,30.06,29.71,6,2,15,0.00
2013-3-16,32,28,25,18,13,9,60,53,48,30.03,29.89,3,2,6,0.00
2013-3-17,42,29,24,17,10,5,58,46,33,30.33,30.01,4,2,9,0.00
2013-3-18,35,30,22,17,13,4,55,49,43,30.33,30.01,7,3,13,0.00
2013-3-19,36,32,27,35,25,16,96,78,50,30.01,29.59,5,3,13,0.17
2013-3-20,38,29,25,23,18,12,79,63,49,29.89,29.77,5,3,10,0.05
2013-3-21,35,29,24,26,20,12,77,67,58,29.86,29.71,4,2,10,0.00
2013-3-22,41,33,28,25,22,18,77,64,50,29.95,29.74,6,3,13,0.00
2013-3-23,47,35,31,27,22,18,75,58,42,30.03,29.92,6,2,13,0.00
2013-3-24,49,38,32,26,21,18,57,49,39,30.03,29.77,4,2,7,0.00
2013-3-25,53,40,33,30,23,20,62,52,40,29.80,29.68,5,2,10,0.00
2013-3-26,60,44,37,32,24,20,57,47,31,29.98,29.77,5,2,9,0.00
2013-3-27,48,40,36,29,26,20,72,57,46,30.09,29.92,5,2,14,0.00
2013-3-28,47,41,35,31,28,25,74,60,44,30.21,30.06,5,2,7,0.00
2013-3-29,61,46,38,32,26,18,61,48,33,30.21,30.12,6,2,13,0.00
2013-3-30,61,44,33,31,24,17,59,45,29,30.24,30.01,5,1,12,0.00
2013-3-31,53,45,38,40,28,-100,79,55,43,30.03,29.59,3,1,9,0.00
2013-4-1,45,36,28,40,22,14,85,55,39,30.01,29.56,7,4,17,0.00
2013-4-2,41,30,26,19,14,11,56,51,39,30.03,29.95,6,3,16,0.00
2013-4-3,49,46,42,16,11,4,32,24,16,30.06,30.00,6,4,12,0.00
2013-4-4,55,47,36,29,19,-1,53,34,15,29.97,29.65,6,3,14,0.00
2013-4-5,51,40,32,27,19,2,53,44,18,29.97,29.65,6,3,14,0.00
2013-4-6,53,37,28,28,19,13,54,48,38,30.09,29.85,4,2,9,0.00
2013-4-8,50,50,50,31,31,31,48,48,48,29.95,29.95,4,4,0,0.00
2013-4-10,42,42,42,39,39,39,88,88,88,29.98,29.98,1,1,15,0.00
2013-4-14,40,40,40,29,29,29,65,65,65,30.18,30.18,0,0,0,0.00
2013-4-15,58,52,49,39,38,35,69,57,47,30.09,30.01,3,1,6,0.00
2013-4-16,59,53,47,54,43,30,87,69,47,30.25,29.95,6,2,12,0.00
2013-4-17,62,48,39,37,30,27,64,51,36,30.39,30.25,4,2,10,0.00
2013-4-18,64,53,42,57,44,31,85,71,53,30.27,29.62,5,2,9,0.17
2013-4-19,60,54,44,57,47,29,93,79,54,29.72,29.36,7,2,15,0.16
2013-4-20,44,38,34,33,24,17,77,56,42,30.42,29.71,9,3,15,0.04
2013-4-21,53,39,31,29,21,17,60,49,37,30.68,30.42,5,2,13,0.00
2013-4-22,64,46,36,38,29,21,69,51,35,30.57,30.30,5,2,14,0.00
2013-4-23,62,49,39,38,32,28,70,54,39,30.30,29.92,5,1,10,0.00
2013-4-24,53,47,39,48,40,33,91,75,58,30.03,29.66,5,1,13,0.54
2013-4-25,55,46,37,39,34,31,81,66,46,30.21,30.03,7,3,15,0.04
2013-4-26,62,52,40,35,31,28,83,46,35,30.48,30.31,7,3,13,0.04
2013-4-27,67,51,43,41,31,25,58,46,36,30.42,30.21,4,1,7,0.00
2013-4-28,71,55,46,48,38,-100,85,56,37,30.21,30.01,8,1,15,0.17
2013-4-29,54,51,48,52,48,46,94,90,83,30.03,29.96,2,1,7,0.46
2013-4-30,72,58,51,58,51,48,94,80,56,30.18,30.01,3,1,8,0.04
2013-5-1,77,63,54,53,48,35,82,60,38,30.35,30.18,3,1,6,0.04
2013-5-2,81,63,51,47,38,32,64,42,27,30.39,30.25,3,1,9,0.00
2013-5-3,79,64,53,46,40,33,57,42,31,30.29,30.18,4,1,8,0.00
2013-5-4,77,63,52,45,39,32,67,42,26,30.27,30.16,3,1,7,0.00
2013-5-5,80,64,53,47,40,35,58,41,27,30.21,30.07,6,1,9,0.00
2013-5-6,79,62,52,43,36,26,61,40,23,30.15,30.03,4,1,9,0.00
2013-5-7,82,64,51,46,35,27,51,36,21,30.15,30.01,3,1,7,0.00
2013-5-8,72,63,58,56,47,34,78,55,37,30.06,29.95,3,1,6,0.00
2013-5-9,73,65,61,62,57,48,90,76,57,29.98,29.89,4,1,9,0.21
2013-5-10,60,56,54,58,50,-100,96,86,64,29.95,29.69,4,1,7,1.00
2013-5-11,63,53,47,56,48,45,96,82,60,29.80,29.68,5,2,12,0.87
2013-5-12,53,44,39,47,34,-100,86,70,46,29.95,29.69,6,3,13,0.13
2013-5-13,56,45,38,33,29,22,78,55,38,30.15,29.92,5,2,10,0.04
2013-5-14,56,48,42,38,32,24,59,53,45,30.18,29.95,3,1,8,0.00
2013-5-15,79,62,47,52,42,35,73,49,34,29.95,29.56,7,2,13,0.04
2013-5-16,64,58,55,42,38,34,54,47,42,30.03,29.71,3,1,9,0.04
2013-5-17,66,56,48,43,34,-100,68,49,36,30.24,30.03,3,1,8,0.00
2013-5-18,77,61,51,44,39,33,70,46,30,30.27,30.12,5,1,8,0.00
2013-5-19,79,63,55,56,47,33,78,57,36,30.15,29.98,1,1,0,0.00
2013-5-20,82,67,57,63,57,51,90,72,47,30.03,29.86,1,1,0,0.13
2013-5-21,76,66,60,65,61,57,95,85,63,29.92,29.77,2,1,3,0.50
2013-5-22,73,62,58,62,58,54,93,85,68,29.83,29.65,2,1,5,0.29
2013-5-23,76,61,44,62,53,39,91,76,53,30.01,29.65,5,2,13,0.04
2013-5-24,62,48,41,40,35,29,87,62,42,30.27,30.01,6,2,10,0.04
2013-5-25,69,53,42,41,34,28,71,49,34,30.27,30.18,4,2,12,0.00
2013-5-26,74,57,46,41,33,29,59,41,26,30.27,30.18,3,2,8,0.00
2013-5-27,72,59,47,42,34,29,61,40,26,30.30,30.12,5,1,12,0.00
2013-5-28,58,55,52,56,46,36,96,75,44,30.15,29.89,2,1,7,0.64
2013-5-29,75,66,57,72,63,56,97,92,79,29.98,29.86,5,1,8,2.00
2013-5-30,84,72,63,70,64,61,94,78,57,30.09,29.98,5,1,12,0.04
2013-5-31,87,73,64,68,64,59,90,75,48,30.06,29.92,5,2,10,0.12
2013-6-1,81,70,64,71,65,59,94,82,66,29.92,29.74,5,2,13,0.12
2013-6-2,72,65,53,67,60,-100,96,86,73,29.92,29.65,4,2,13,0.33
2013-6-3,72,58,49,46,42,37,81,59,38,30.03,29.92,3,2,9,0.03
2013-6-4,78,61,51,46,39,32,64,45,29,30.18,30.03,4,1,8,0.00
2013-6-5,72,62,57,45,38,32,51,41,36,30.27,30.06,4,1,9,0.00
2013-6-6,60,57,54,53,46,38,94,69,44,30.12,29.89,5,2,15,0.26
2013-6-7,61,58,55,58,56,53,96,91,85,29.92,29.83,2,0,5,0.05
2013-6-8,67,62,58,58,56,52,91,82,64,30.06,29.83,5,1,9,0.00
2013-6-9,78,65,55,57,51,45,90,63,42,30.18,30.06,4,1,9,0.00
2013-6-10,63,61,59,60,55,47,96,82,55,30.12,29.74,5,2,10,0.67
2013-6-11,74,65,59,66,60,56,98,85,62,29.86,29.65,3,1,8,0.72
2013-6-12,64,63,62,59,58,57,87,84,79,29.86,29.83,0,0,2,0.17
2013-6-13,76,65,60,64,58,55,95,80,58,29.83,29.65,4,1,8,0.37
2013-6-14,80,66,59,64,56,43,96,75,47,30.01,29.83,3,1,6,0.30
2013-6-15,76,65,55,55,46,42,67,52,36,30.06,29.92,5,1,13,0.00
2013-6-16,80,69,61,71,60,45,95,74,45,29.95,29.71,4,1,9,0.54
2013-6-17,81,70,63,62,58,52,88,66,46,29.98,29.80,3,1,8,0.04
2013-6-18,75,64,58,55,49,41,80,59,43,30.06,29.95,4,1,9,0.00
2013-6-19,73,62,55,46,41,38,61,47,36,30.21,30.06,5,1,9,0.00
2013-6-20,77,62,53,54,49,44,81,64,36,30.27,30.18,3,1,6,0.00
2013-6-25,76,74,74,69,68,67,85,82,78,29.80,29.78,4,3,8,0.08
2013-6-26,89,76,70,73,68,65,90,76,54,29.82,29.77,7,3,14,0.04
2013-6-27,74,71,69,67,66,64,90,84,76,29.80,29.66,4,2,8,0.00
2013-6-28,70,67,64,68,65,63,96,92,84,29.68,29.53,6,2,8,0.37
2013-6-29,76,68,63,66,62,58,97,83,66,29.74,29.53,7,2,13,0.04
2013-6-30,81,69,62,63,59,53,90,71,47,29.95,29.71,5,2,9,0.00
2013-7-1,76,69,65,54,50,45,61,51,44,30.09,29.95,7,3,12,0.00
2013-7-2,76,68,65,61,55,48,81,62,50,30.12,30.06,6,3,14,0.00
2013-7-3,81,72,66,68,65,61,89,80,61,30.15,30.06,6,2,8,0.00
2013-7-4,80,74,69,75,69,67,95,86,75,30.15,30.06,6,3,10,0.33
2013-7-5,75,73,71,72,69,68,95,90,84,30.12,30.03,5,2,8,0.34
2013-7-6,85,74,68,73,69,67,96,86,65,30.15,30.01,5,2,10,0.04
2013-7-7,81,74,71,74,71,69,96,90,77,30.03,29.92,7,2,13,1.13
2013-7-8,86,73,70,74,70,68,96,91,65,30.06,29.95,6,1,9,2.76
2013-7-9,75,72,69,72,70,68,97,94,90,30.03,29.86,5,2,8,0.04
2013-7-10,88,75,70,76,66,-100,96,78,60,29.86,29.68,6,3,13,0.04
2013-7-11,79,71,65,63,59,55,71,65,56,30.06,29.83,5,3,13,0.04
2013-7-12,79,70,64,63,59,56,82,70,52,30.18,30.01,5,2,8,0.00
2013-7-13,86,73,64,63,61,58,85,67,42,30.24,30.15,5,2,9,0.00
2013-7-14,90,77,69,72,68,63,89,75,52,30.30,30.21,3,1,6,0.00
2013-7-15,92,79,73,72,68,62,90,72,45,30.30,30.18,5,1,9,0.00
2013-7-16,91,81,74,73,68,64,80,65,47,30.27,30.18,6,2,9,0.00
2013-7-17,97,85,78,78,73,69,83,69,48,30.21,30.06,7,2,13,0.00
2013-7-18,92,85,80,76,72,68,79,66,50,30.09,29.92,5,2,9,0.00
2013-7-19,96,81,71,75,71,67,88,73,44,29.92,29.68,10,3,20,0.17
2013-7-20,87,76,71,70,60,-100,92,61,41,29.92,29.71,8,3,12,0.21
2013-7-21,77,70,65,59,55,52,74,60,48,30.06,29.89,6,3,12,0.04
2013-7-22,77,69,63,66,60,52,87,75,46,30.03,29.77,6,2,12,0.00
2013-7-23,80,72,65,69,63,53,85,73,58,29.80,29.59,8,3,17,0.00
2013-7-24,76,64,58,55,48,45,70,57,37,30.03,29.74,7,4,15,0.00
2013-7-25,78,67,59,57,51,47,78,59,37,30.15,30.03,5,2,9,0.00
2013-7-26,80,68,60,60,54,47,84,63,39,30.15,30.01,5,2,9,0.00
2013-7-27,73,69,66,67,64,57,95,84,69,30.01,29.77,5,2,15,0.38
2013-7-28,78,68,63,67,57,48,95,71,41,29.98,29.74,7,4,15,0.25
2013-7-29,71,65,61,60,56,53,83,73,62,30.12,29.95,6,3,13,0.04
2013-7-30,78,68,61,62,58,56,84,71,52,30.18,30.12,7,2,15,0.04
2013-7-31,79,68,62,64,60,56,93,74,56,30.15,29.95,3,2,8,0.30
2013-8-1,80,69,62,69,60,52,96,76,50,29.95,29.77,7,3,13,1.13
2013-8-2,81,68,62,64,59,54,91,75,49,29.89,29.77,8,2,12,0.33
2013-8-3,70,64,61,62,57,50,92,79,50,29.98,29.83,6,2,14,0.33
2013-8-4,79,66,61,56,51,42,79,59,39,30.12,29.95,10,4,17,0.00
2013-8-5,79,66,59,57,50,46,76,58,37,30.12,30.01,6,3,13,0.00
2013-8-6,81,69,64,64,57,53,76,67,47,30.06,29.98,6,2,14,0.00
2013-8-7,78,72,67,71,66,61,88,81,70,30.01,29.83,6,3,10,0.00
2013-8-8,82,74,70,71,66,59,88,76,56,29.98,29.89,5,2,10,0.00
2013-8-9,84,73,67,62,55,49,69,55,40,29.95,29.86,5,3,13,0.00
2013-8-10,79,70,62,55,49,45,62,49,38,30.09,29.92,6,3,12,0.00
2013-8-11,77,67,59,58,52,48,70,59,43,30.15,30.01,7,2,13,0.00
2013-8-12,75,68,61,64,58,52,82,71,58,30.06,29.83,5,1,10,0.00
2013-8-13,78,66,59,64,52,-100,88,66,41,29.92,29.77,8,3,15,0.00
2013-8-14,73,60,58,51,40,-100,75,56,35,30.12,29.89,8,5,20,0.00
2013-8-21,90,77,70,68,64,61,76,64,44,30.15,29.98,5,5,5,0.00
2013-8-22,88,77,71,69,59,49,78,56,38,30.03,29.92,7,4,15,0.00
2013-8-23,78,69,64,56,52,48,71,57,39,30.21,30.01,5,2,9,0.00
2013-8-24,80,68,61,60,55,50,83,65,39,30.33,30.18,5,1,10,0.00
2013-8-25,82,70,61,67,57,-100,85,69,50,30.33,30.06,6,2,13,0.04
2013-8-26,73,71,69,71,68,64,95,91,84,30.09,29.92,6,2,13,0.92
2013-8-27,78,71,68,73,69,67,96,92,79,29.95,29.92,5,1,9,0.41
2013-9-5,71,61,56,53,44,33,74,56,33,30.27,30.01,7,3,14,0.00
2013-9-6,74,61,50,55,45,38,73,57,38,30.30,30.06,6,2,10,0.00
2013-9-7,67,64,62,66,59,50,95,82,60,30.09,29.89,7,2,14,0.59
2013-9-8,70,63,59,66,52,-100,95,73,45,30.12,29.86,8,3,14,0.13
2013-9-9,61,61,61,52,52,52,71,71,71,30.09,30.09,1,1,0,0.00
2013-9-10,91,80,61,76,68,52,76,68,56,30.09,29.89,6,3,12,0.00
2013-9-11,90,78,71,74,69,66,90,75,54,30.01,29.89,6,2,13,0.21
2013-10-2,80,68,63,63,53,38,87,64,33,30.09,29.92,6,2,13,0.00
2013-10-3,73,62,53,55,43,37,73,52,36,30.15,30.01,4,1,8,0.00
2013-10-4,65,62,61,61,59,55,94,89,71,30.09,29.98,7,3,8,0.43
2013-10-5,63,61,57,57,56,54,94,83,74,30.12,30.03,5,5,5,0.21
2013-10-6,65,62,59,64,59,52,96,91,73,30.03,29.68,5,5,5,0.16
2013-10-7,66,60,53,65,55,45,97,85,56,30.03,29.62,5,5,5,0.37
2013-10-8,67,56,49,51,48,45,89,76,50,30.36,30.03,5,5,5,0.03
2013-10-9,60,54,50,51,49,47,89,84,69,30.33,30.27,5,2,5,0.00
2013-10-10,71,56,51,60,51,48,94,84,54,30.30,30.18,0,0,0,0.00
2013-10-11,70,55,48,54,46,43,85,73,43,30.21,30.12,0,0,0,0.00
2013-10-12,63,52,48,60,47,43,89,82,75,30.15,30.12,6,1,13,0.00
2013-10-13,61,61,58,60,60,56,97,96,93,30.27,30.21,4,1,6,0.04
2013-10-14,65,56,51,56,51,48,93,84,63,30.36,30.27,6,2,9,0.04
2013-10-15,69,58,49,59,52,46,94,83,64,30.30,29.92,0,0,0,0.00
2013-10-16,67,62,56,64,60,50,96,90,77,29.92,29.71,0,0,0,0.29
2013-10-17,68,58,55,55,52,50,91,81,59,29.86,29.71,6,1,6,0.37
2013-10-18,61,55,50,48,44,40,91,67,48,29.89,29.80,8,4,9,0.37
2013-10-19,54,50,45,48,45,42,92,83,73,29.89,29.65,6,2,8,0.34
2013-10-20,61,48,42,48,38,-100,92,72,49,29.98,29.77,7,3,12,0.04
2013-10-21,59,53,48,50,47,40,93,79,71,29.95,29.77,7,3,13,0.25
2013-10-22,51,46,41,49,36,29,93,69,52,29.86,29.77,10,5,16,0.04
2013-10-23,50,44,40,38,33,26,78,65,49,29.83,29.71,7,3,9,0.00
2013-10-24,51,43,38,36,33,29,77,67,54,30.03,29.77,9,3,13,0.00
2013-10-25,53,45,40,37,34,31,81,67,50,30.18,30.03,3,1,7,0.00
2013-10-26,45,43,42,41,37,28,91,79,54,30.06,29.71,3,2,10,0.37
2013-10-27,50,43,39,40,34,-100,87,72,60,30.06,29.80,6,2,13,0.04
2013-10-28,53,44,37,37,28,-100,73,57,36,30.42,30.01,7,3,14,0.00
2013-10-29,49,39,32,32,25,21,67,58,44,30.48,30.30,5,1,9,0.00
2013-10-30,56,45,42,43,39,33,86,77,57,30.30,30.06,5,1,8,0.00
2013-10-31,60,51,45,59,49,41,97,92,86,30.06,29.30,7,2,15,0.58
2013-11-1,57,54,50,56,48,43,97,83,71,29.65,29.12,10,5,21,0.13
2013-11-2,49,46,37,46,41,30,91,83,74,30.06,29.59,6,3,12,0.08
2013-11-3,43,34,31,30,22,-100,77,64,49,30.54,30.06,5,2,9,0.04
2013-11-6,58,51,46,55,44,38,95,77,65,30.28,29.77,9,3,15,0.13
2013-11-7,55,44,40,54,36,31,95,73,59,30.01,29.80,8,4,15,0.04
2013-11-8,45,40,37,32,28,24,77,63,48,30.21,29.96,9,4,14,0.00
2013-11-9,50,41,40,43,28,-100,77,64,59,30.23,29.78,7,3,17,0.00
2013-11-10,49,45,40,39,34,29,74,66,53,30.18,29.77,11,5,22,0.00
2013-11-11,45,39,33,36,30,19,77,68,54,30.18,29.92,12,4,17,0.04
2013-11-12,37,31,27,22,16,12,68,54,43,30.42,30.15,9,4,18,0.04
2013-11-19,39,36,30,29,22,17,72,57,49,30.45,29.95,9,4,17,0.00
2013-11-20,40,34,28,29,23,16,71,64,59,30.57,30.42,8,4,15,0.00
2013-11-21,45,41,36,39,31,24,87,69,58,30.42,30.24,5,2,10,0.04
2013-11-22,48,42,32,46,39,24,96,89,73,30.24,30.01,11,3,21,0.25
2013-11-23,34,28,18,27,17,-100,79,65,53,30.29,30.06,9,5,17,0.05
2013-11-24,26,20,14,13,8,2,64,59,53,30.42,30.27,9,4,17,0.00
2013-11-25,36,31,22,24,18,10,66,59,53,30.39,30.06,9,6,16,0.00
2013-11-26,35,34,33,32,27,23,91,76,65,30.09,29.86,6,3,13,0.00
2013-11-27,33,30,22,31,25,11,93,82,64,30.01,29.71,10,5,16,0.12
2013-12-4,40,38,35,36,33,28,89,85,73,30.06,29.86,7,4,9,0.05
2013-12-5,52,44,39,51,38,26,98,83,56,30.03,29.71,10,3,15,0.04
2013-12-6,39,36,34,25,21,20,59,54,52,30.18,30.01,9,3,10,0.04
2013-12-7,36,36,36,20,20,20,52,52,52,30.18,30.18,2,2,2,0.00
2013-12-8,32,28,24,16,12,9,54,51,48,30.57,30.21,7,3,14,0.00
2013-12-9,36,33,30,33,25,15,90,72,54,30.18,29.83,11,5,20,0.04
2013-12-10,29,24,20,14,8,4,60,51,45,30.03,29.92,9,6,16,0.04